Weather Roundup
Issued by NWS Chicago, IL

Home | Current Version | Previous Version | Graphics & Text | Print | Product List | Glossary On
Versions: 1 2 3 4 5 6 7 8 9 10 11 12 13 14 15 16 17 18 19 20 21 22 23 24 25 26 27 28 29 30 31 32 33 34 35 36 37 38 39 40 41 42 43 44 45 46 47 48 49 50
000
NZUS59 KLOT 231212
HRRLOT

CHICAGO AREA WEATHER ROUNDUP
NATIONAL WEATHER SERVICE CHICAGO/ROMEOVILLE IL
700 AM CDT SAT MAY 23 2015

NOTE: "FAIR" INDICATES FEW OR NO CLOUDS BELOW 12,000 FEET WITH NO
SIGNIFICANT WEATHER AND/OR OBSTRUCTIONS TO VISIBILITY.

* THESE STATIONS ARE NOT UNDER NWS QUALITY CONTROL. THEY ALSO MAY NOT
  REPORT WEATHER SUCH AS PRECIPITATION OR FOG.

ILZ005-006-012>014-019>023-231300-
NORTHEAST ILLINOIS

CITY           SKY/WX    TMP DP  RH WIND       PRES   REMARKS
OHARE          MOSUNNY   53  40  61 S6        30.34R
6HR MIN TEMP:  46; 6HR MAX TEMP:  53;

MIDWAY         MOSUNNY   58  35  42 SE7       30.34R
6HR MIN TEMP:  53; 6HR MAX TEMP:  58;

AURORA         PTSUNNY   53  42  66 CALM      30.35R
6HR MIN TEMP:  44; 6HR MAX TEMP:  53;

LANSING*       MOSUNNY   53  38  56 CALM      30.35R
JOLIET*        PTSUNNY   57  38  49 S6        30.35R
WAUKEGAN       SUNNY     51  40  65 CALM      30.34R
6HR MIN TEMP:  40; 6HR MAX TEMP:  51;

DUPAGE AIRPORT MOSUNNY   52  43  71 CALM      30.33R
6HR MIN TEMP:  41; 6HR MAX TEMP:  52;

WHEELING       SUNNY     49  41  74 CALM      30.36R
6HR MIN TEMP:  43; 6HR MAX TEMP:  49;

KANKAKEE*      PTSUNNY   56  40  55 E8        30.35S
MORRIS*        PTSUNNY   57  38  49 SE7       30.31S
LEWIS AIRPORT* MOSUNNY   56  37  47 S9        30.34R
NORTHERLY IS     N/A     55  44  66 S1          N/A
$$

WIZ051-052-058>065-066-070>072-231300-
SOUTHEAST WISCONSIN

CITY           SKY/WX    TMP DP  RH WIND       PRES   REMARKS
MILWAUKEE      MOSUNNY   53  33  46 S3        30.34R
6HR MIN TEMP:  45; 6HR MAX TEMP:  53;

KENOSHA*       SUNNY     51  41  68 CALM      30.34R
RACINE*        SUNNY     54  34  46 S8        30.35R
BURLINGTON     SUNNY     44  39  80 CALM      30.34R
WAUKESHA       MOSUNNY   50  32  50 S5        30.34R
WEST BEND      SUNNY     50  34  53 CALM      30.33R
$$

INZ001>003-010>013-019-020-231300-
NORTHWEST INDIANA

CITY           SKY/WX    TMP DP  RH WIND       PRES   REMARKS
GARY*          MOSUNNY   55  36  47 SE8       30.35R
MICHIGAN CITY* NOT AVBL
RENSSELAER*    NOT AVBL
VALPARAISO     MOSUNNY   53  38  56 E3        30.37R
$$

LMZ740>746-231300-
SOUTHERN LAKE MICHIGAN

STATION/POSITION TIME  SKY/WX   TEMP WIND        PRES    VSBY
                                AIR  DIR/SP/G
                 (UTC)          (F)  (DEG/KT/KT) (MB)    (MI)
HARRISON CRIB    1100            54  150/ 11/ 13   N/A
BURNHAM HARBOR   1200            56   CALM  /  3   N/A
CALUMET HARBOR   1100            55  130/  4/  6   N/A
BURNS HARBOR     1100            58  140/  9/ 16 1027.4R
MICHIGAN CITY    1100            54  120/ 10/ 12   N/A
$$

ABBREVIATIONS USED IN REMARKS
   TC - TEMPERATURE IN CELSIUS
  WCI - WIND CHILL INDEX
   HX - HEAT INDEX
  VSB - VISIBILITY
$$



USA.gov is the U.S. government's official web portal to all federal, state and local government web resources and services.